Nombre de participants arrivés : 136
FESTIVAL SPORT NATURE HAMOIR – TRAIL        
DISTANCE 16.05 km Dame : 24 Homme : 112
vendredi 21 août 2015        
         
Place dos NOM Catégorie Pl/cat temps temps/km Vitesse
1 530 COUTREZ ALEXANDRE Homme 1 01:16:44 04:47 12.55
2 500 BERNAERTS TIM Homme 2 01:20:39 05:01 11.94
3 768 VANDERSCHAEGHE JEROME Homme 3 01:20:42 05:02 11.93
4 749 LEBER MATHIEU Homme 4 01:20:56 05:03 11.90
5 562 BERWART GILLES Homme 5 01:23:07 05:11 11.59
6 715 COLLIGNON ARNAUD Homme 6 01:23:16 05:11 11.57
7 518 DUGAST ROBIN Homme 7 01:23:25 05:12 11.54
8 519 DUGAST MARIN Homme 8 01:23:26 05:12 11.54
9 761 AFKIR NAIM Homme 9 01:23:41 05:13 11.51
10 767 MARTINS MARIO Homme 10 01:24:38 05:16 11.38
11 759 GIVRON REGIS Homme 11 01:24:41 05:17 11.37
12 728 BASTIN YOHAN Homme 12 01:27:05 05:26 11.06
13 727 KEMPINAIRE JONATHAN Homme 13 01:27:31 05:27 11.00
14 760 WYSOCKI NICOLAS Homme 14 01:28:18 05:30 10.91
15 735 LAURENT PHILIPPE Homme 15 01:28:44 05:32 10.85
16 710 DENEUMOSTIER JEROME Homme 16 01:28:47 05:32 10.85
17 748 DHONDT FREDERIC Homme 17 01:29:15 05:34 10.79
18 746 DIDOMENICO RAPHAEL Homme 18 01:29:17 05:34 10.79
19 548 MARENNE NICOLAS Homme 19 01:30:04 05:37 10.69
20 542 TILKIN FANNY Dame 1 01:30:06 05:37 10.69
21 750 LAMAIRE JEREMY Homme 20 01:30:27 05:38 10.65
22 711 SCHULLER GREGORY Homme 21 01:30:30 05:38 10.64
23 547 SAUVAGE MAXIME Homme 22 01:30:36 05:39 10.63
24 737 FIASSE FRANCOIS Homme 23 01:30:40 05:39 10.62
25 541 CHAPA BENJAMIN Homme 24 01:30:54 05:40 10.59
26 714 IACHINI NICOLAS Homme 25 01:31:47 05:43 10.49
27 758 LEONET MARTIN Homme 26 01:31:52 05:43 10.48
28 730 DECLERC RENAUD Homme 27 01:32:12 05:45 10.44
29 726 KEMPINAIRE PHILIPPE Homme 28 01:32:18 05:45 10.43
30 722 ROMPEN ALAIN Homme 29 01:32:38 05:46 10.40
31 732 DOURCY ALAIN Homme 30 01:32:54 05:47 10.37
32 734 EVRARD AMAURY Homme 31 01:32:57 05:47 10.36
33 700 VOET ANDREAS Homme 32 01:33:12 05:48 10.33
34 544 VARLET ARNAUD Homme 33 01:34:48 05:54 10.16
35 505 GUEUNING BENOÎT Homme 34 01:34:56 05:55 10.14
36 763 BRONLET MATHIEU Homme 35 01:35:38 05:58 10.07
37 765 DEWART RENAUD Homme 36 01:35:41 05:58 10.06
38 565 LAHAUT OLIVIER Homme 37 01:36:18 06:00 10.00
39 529 SCHULSSE THIERRY Homme 38 01:37:37 06:05 9.87
40 528 VILLERS ANNE-SOPHIE Dame 2 01:37:41 06:05 9.86
41 535 ZEGUERS THOM Homme 39 01:37:43 06:05 9.86
42 534 ZEGUERS CAMILLE Dame 3 01:37:45 06:05 9.85
43 512 FRIES NICOLAS Homme 40 01:39:30 06:12 9.68
44 709 DENEMOSTIER ROMUALD Homme 41 01:40:27 06:16 9.59
45 764 LECOCQ QUENTIN Homme 42 01:40:38 06:16 9.57
46 743 DOGNE JEAN Homme 43 01:41:11 06:18 9.52
47 742 HAUFROID DAMIEN Homme 44 01:41:22 06:19 9.50
48 513 REICHLING YANNICK Homme 45 01:41:23 06:19 9.50
49 753 FAFCHAMPS MICHEL Homme 46 01:41:26 06:19 9.49
50 751 DOYENARD SABRINA Dame 4 01:41:32 06:20 9.48
51 733 EVRARD JOHAN Homme 47 01:41:51 06:21 9.46
52 533 SWITTEN PATRICK Homme 48 01:41:53 06:21 9.45
53 532 HARZE PATRICK Homme 49 01:42:07 06:22 9.43
54 736 BONIVER ARNAUD Homme 50 01:42:42 06:24 9.38
55 725 NYSSEN ARNAUD Homme 51 01:43:13 06:26 9.33
56 717 WILLERMARCK STEPHANE Homme 52 01:43:18 06:26 9.32
57 738 SIMON PHILIPPE Homme 53 01:44:51 06:32 9.18
58 757 HERBILLON LAURENT Homme 54 01:44:53 06:32 9.18
59 527 PACOLET JULIE Dame 5 01:44:57 06:32 9.18
60 564 COHEN SABBAN BRICE Homme 55 01:45:00 06:33 9.17
61 731 LOUMRHARI LARBI Homme 56 01:45:04 06:33 9.17
62 755 WINKIN LIONEL Homme 57 01:45:05 06:33 9.16
63 756 LOMBARD MICHELE Dame 6 01:45:10 06:33 9.16
64 514 VERHEGGEN LUDOVIC Homme 58 01:45:19 06:34 9.14
65 531 VAN HEESCH INGRID Dame 7 01:45:21 06:34 9.14
66 708 MONJOIE CEDRIC Homme 59 01:45:34 06:35 9.12
67 701 BOURGUIGNON VIANNEY Homme 60 01:45:46 06:35 9.10
68 508 VAN HESPEN BENOIT Homme 61 01:45:55 06:36 9.09
69 707 JOBE ERIC Homme 62 01:46:07 06:37 9.07
70 741 WILLEMS JULIANE Homme 63 01:46:15 06:37 9.06
71 566 GODFROID ERIC Homme 64 01:46:16 06:37 9.06
72 516 GILSON BENOIT Homme 65 01:46:35 06:38 9.04
73 568 DELFORGE YVES Homme 66 01:46:51 06:39 9.01
74 526 DETREMBLEUR SERGE Homme 67 01:47:33 06:42 8.95
75 525 BALTHAZART PASCAL Homme 68 01:48:11 06:44 8.90
76 762 STROZ YOAN Homme 69 01:48:15 06:45 8.90
77 754 THOMAS XAVIER Homme 70 01:48:58 06:47 8.84
78 752 SIMON GIL Homme 71 01:49:01 06:48 8.83
79 729 LEJEUNE JONATHAN Homme 72 01:53:22 07:04 8.49
80 506 CULOT STEPHANE Homme 73 01:53:26 07:04 8.49
81 720 VAN DER HORST ROBERT Homme 74 01:54:30 07:08 8.41
82 538 BIETHERES MICHAËL Homme 75 01:55:27 07:12 8.34
83 510 REGNIER ANNE SOPHIE Dame 8 01:55:32 07:12 8.34
84 705 BASTIN PATRICK Homme 76 01:55:43 07:13 8.32
85 721 DEPOUHON RAPHAEL Homme 77 01:55:50 07:13 8.31
86 702 CANNARSA MARIO Homme 78 01:56:00 07:14 8.30
87 520 MONSEZ CHRISTINE Dame 9 01:56:25 07:15 8.27
88 706 ROUFFIGNON VINCENT Homme 79 01:56:33 07:16 8.26
89 716 FUDVOYE JULIE Homme 80 01:58:19 07:22 8.14
90 718 FUDVOYE THIBAUT Homme 81 01:58:27 07:23 8.13
91 719 LEJEUNE BERNARD Homme 82 01:58:30 07:23 8.13
92 567 TATON DENIS Homme 83 01:59:12 07:26 8.08
93 703 EVRARD PIERRE Homme 84 02:00:03 07:29 8.02
94 546 ALONSO HERNANDEZ MARCO Homme 85 02:00:04 07:29 8.02
95 545 CITRON ANTHONY Homme 86 02:00:06 07:29 8.02
96 536 VICKEVORST LUC Homme 87 02:00:08 07:29 8.02
97 524 HANNESSE RUDY Homme 88 02:02:16 07:37 7.88
98 515 LAURENT ANNE Dame 10 02:02:41 07:39 7.85
99 517 BAIVERLIN LUC Homme 89 02:02:44 07:39 7.85
100 549 GLAUDE CAROLINE Dame 11 02:03:17 07:41 7.81
101 521 AERTS CATHLYNE Dame 12 02:04:07 07:44 7.76
102 523 LECERF JEAN-LUC homme 90 02:04:09 07:44 7.76
103 723 LECOMTE FREDERIC Homme 91 02:04:49 07:47 7.72
104 724 GERKENS DANIEL Homme 92 02:04:51 07:47 7.71
105 740 MICHEL VERONIQUE Dame 13 02:05:43 07:50 7.66
106 739 STALPORT CAROLE Dame 14 02:05:46 07:50 7.66
107 557 DATTOLI CARLO Homme 93 02:06:15 07:52 7.63
108 537 LAMBERT JEAN Homme 94 02:06:17 07:52 7.63
109 555 VANESSE JEAN-DENIS Homme 95 02:07:01 07:55 7.58
110 543 HELAIN MICHAEL Homme 96 02:07:06 07:55 7.58
111 511 REGNIER SIMON Homme 97 02:09:37 08:05 7.43
112 747 FRERE ISABELLE Dame 15 02:09:41 08:05 7.43
113 713 CHARLIER MATHIEU Homme 98 02:10:30 08:08 7.38
114 556 SOHY DELPHINE Dame 16 02:10:34 08:08 7.38
115 712 LABY JUSTINE Dame 17 02:10:37 08:08 7.37
116 570 HENSENS JEAN Homme 99 02:10:41 08:09 7.37
117 522 LAENENS FRANCIS Homme 100 02:10:44 08:09 7.37
118 553 ALLEMON DAVID Homme 101 02:15:11 08:25 7.12
119 550 THOELEN VINCIANE Dame 18 02:15:13 08:25 7.12
120 551 SOLOVIEV SERGUEI Homme 102 02:15:17 08:26 7.12
121 552 BERTRAND LAURE Dame 19 02:15:22 08:26 7.11
122 554 MATAGNE JULIEN Homme 103 02:15:23 08:26 7.11
123 540 ROBERT CHARLINE Dame 20 02:15:27 08:26 7.11
124 569 PICARD XAVIER Homme 104 02:18:37 08:38 6.95
125 704 DRIESSEN JO GERAMAIN Homme 105 02:19:38 08:42 6.90
126 539 MAQUET NATHALIE Dame 21 02:20:50 08:46 6.84
127 504 DENYS MICHIEL Homme 106 02:28:37 09:16 6.48
128 561 BORGUET CATHERINE Dame 22 02:28:55 09:17 6.47
129 502 VERMANDERE SENNE Homme 107 02:29:05 09:17 6.46
130 744 PAQUAY ELODIE Dame 23 02:29:15 09:18 6.45
131 745 DODEIGNE DELPHINE Dame 24 02:29:17 09:18 6.45
132 501 VERMANDERE TOM Homme 108 02:29:42 09:20 6.43
133 503 DENYS KOEN Homme 109 02:29:44 09:20 6.43
134 560 ARENA STEFANO Homme 110 02:34:18 09:37 6.24
135 507 LEVEQUE PATRICK Homme 111 02:37:00 09:47 6.13
136 509 DANDOY PIERRE Homme 112 03:22:59 12:39 4.74

 

Brasserie HarrayLOGOBlim2012PROJET ANNONCE

 carrefour

Logo Lacasse

 godfrain